GIA1105 WIMM-OEMA

Flight info

Callsign GIA1105
Flight time N/A
Altitude 34000
Route INANG DCT MABIX P570 TVM UL425 ASPUX N315 SITOL DCT PUSON L883 KITUB Y511 ELONU
Aircraft B77W/H-SDE1E2E3FGHIJ4J5M1RWXYZ/LB1D1

Departure

Time N/A
Airport Kualanamu International Airport (WIMM)

Arrival

Time 2026-04-25 02:47
Airport Prince Mohammad Bin Abdulaziz Airport (OEMA)
Time Latitude Longitude Altitude Speed Heading
2026-04-24 17:09 3.63870 98.87876 39 ft 0 kts 224°
2026-04-24 18:54 3.32994 95.84737 33830 ft 495 kts 266°
2026-04-24 18:55 3.32341 95.74452 33831 ft 496 kts 266°
2026-04-24 18:56 3.31903 95.67551 33834 ft 494 kts 266°
2026-04-24 18:56 3.31468 95.60722 33831 ft 496 kts 266°
2026-04-24 18:57 3.31029 95.53822 33836 ft 496 kts 266°
2026-04-24 18:57 3.30591 95.46950 33839 ft 497 kts 266°
2026-04-24 18:58 3.30153 95.40093 33841 ft 496 kts 266°
2026-04-24 18:58 3.29714 95.33215 33842 ft 495 kts 266°
2026-04-24 18:59 3.29274 95.26334 33845 ft 495 kts 266°
2026-04-24 18:59 3.28834 95.19473 33847 ft 497 kts 266°
2026-04-24 19:00 3.28395 95.12619 33848 ft 496 kts 266°
2026-04-24 19:00 3.27954 95.05741 33848 ft 497 kts 266°
2026-04-24 19:01 3.27510 94.98831 33847 ft 496 kts 266°
2026-04-24 19:01 3.27069 94.91975 33848 ft 496 kts 266°
2026-04-24 19:02 3.26903 94.85093 33838 ft 495 kts 276°
2026-04-24 19:02 3.28309 94.78374 33834 ft 496 kts 285°
2026-04-24 19:03 3.30046 94.71747 33832 ft 495 kts 285°
2026-04-24 19:03 3.31793 94.65080 33830 ft 495 kts 285°
2026-04-24 19:04 3.33531 94.58450 33829 ft 494 kts 285°
2026-04-24 19:04 3.35270 94.51808 33830 ft 495 kts 285°
2026-04-24 19:05 3.37015 94.45146 33830 ft 495 kts 285°
2026-04-24 19:05 3.38750 94.38515 33829 ft 494 kts 285°
2026-04-24 19:06 3.40484 94.31885 33825 ft 495 kts 285°
2026-04-24 19:06 3.42236 94.25190 33826 ft 495 kts 285°
2026-04-24 19:07 3.43963 94.18582 33827 ft 495 kts 285°
2026-04-24 19:07 3.45706 94.11916 33827 ft 496 kts 285°
2026-04-24 19:08 3.47451 94.05237 33827 ft 494 kts 285°
2026-04-24 19:08 3.49179 93.98622 33827 ft 494 kts 285°
2026-04-24 19:09 3.50914 93.91979 33829 ft 495 kts 285°
2026-04-24 19:09 3.52650 93.85326 33829 ft 494 kts 285°
2026-04-24 19:10 3.54383 93.78687 33835 ft 494 kts 285°
2026-04-24 19:10 3.56114 93.72053 33841 ft 494 kts 285°
2026-04-24 19:11 3.57854 93.65380 33845 ft 493 kts 285°
2026-04-24 19:11 3.59573 93.58787 33848 ft 493 kts 285°
2026-04-24 19:12 3.61309 93.52127 33850 ft 493 kts 285°
2026-04-24 19:12 3.63032 93.45515 33850 ft 492 kts 285°
2026-04-24 19:13 3.64469 93.39999 33849 ft 492 kts 285°
2026-04-24 19:13 3.66483 93.32265 33846 ft 492 kts 285°
2026-04-24 19:14 3.68210 93.25633 33847 ft 492 kts 285°
2026-04-24 19:14 3.69931 93.19019 33847 ft 492 kts 285°
2026-04-24 19:15 3.71645 93.12428 33840 ft 492 kts 285°
2026-04-24 19:15 3.73361 93.05829 33831 ft 491 kts 285°
2026-04-24 19:16 3.75938 92.95918 33828 ft 490 kts 285°
2026-04-24 19:16 3.77652 92.89322 33827 ft 491 kts 285°
2026-04-24 19:17 3.79376 92.82686 33828 ft 492 kts 285°
2026-04-24 19:17 3.81377 92.74979 33827 ft 491 kts 285°
2026-04-24 19:18 3.82805 92.69477 33828 ft 491 kts 285°
2026-04-24 19:18 3.84517 92.62879 33828 ft 491 kts 285°
2026-04-24 19:19 3.86233 92.56265 33828 ft 491 kts 285°
2026-04-24 19:19 3.87945 92.49663 33828 ft 491 kts 285°
2026-04-24 19:20 3.89661 92.43047 33828 ft 491 kts 285°
2026-04-24 19:20 3.91371 92.36449 33829 ft 491 kts 285°
2026-04-24 19:21 3.93076 92.29864 33826 ft 491 kts 285°
2026-04-24 19:21 3.94797 92.23220 33826 ft 491 kts 285°
2026-04-24 19:22 3.96494 92.16664 33826 ft 491 kts 285°
2026-04-24 19:22 3.98210 92.10032 33827 ft 490 kts 285°
2026-04-24 19:23 3.99917 92.03436 33829 ft 490 kts 285°
2026-04-24 19:23 4.01604 91.96867 33832 ft 490 kts 284°
2026-04-24 19:24 4.03263 91.90269 33842 ft 490 kts 285°
2026-04-24 19:24 4.04926 91.83659 33848 ft 490 kts 285°
2026-04-24 19:25 4.06586 91.77062 33848 ft 491 kts 285°
2026-04-24 19:25 4.08528 91.69344 33848 ft 490 kts 285°
2026-04-24 19:26 4.09908 91.63860 33847 ft 490 kts 285°
2026-04-24 19:26 4.11575 91.57229 33846 ft 490 kts 285°
2026-04-24 19:27 4.13239 91.50610 33838 ft 489 kts 284°
2026-04-24 19:27 4.14898 91.44010 33830 ft 490 kts 285°
2026-04-24 19:28 4.16552 91.37426 33831 ft 490 kts 285°
2026-04-24 19:28 4.18213 91.30813 33827 ft 489 kts 285°
2026-04-24 19:29 4.20697 91.20920 33827 ft 490 kts 285°
2026-04-24 19:30 4.22350 91.14334 33827 ft 489 kts 284°
2026-04-24 19:30 4.24002 91.07745 33827 ft 489 kts 284°
2026-04-24 19:31 4.25654 91.01157 33827 ft 489 kts 284°
2026-04-24 19:31 4.27314 90.94533 33827 ft 489 kts 285°
2026-04-24 19:32 4.28959 90.87969 33827 ft 488 kts 285°
2026-04-24 19:32 4.30611 90.81372 33828 ft 489 kts 284°
2026-04-24 19:33 4.32260 90.74786 33828 ft 489 kts 284°
2026-04-24 19:33 4.33908 90.68202 33828 ft 489 kts 284°
2026-04-24 19:34 4.35559 90.61600 33828 ft 488 kts 284°
2026-04-24 19:34 4.37201 90.55034 33829 ft 489 kts 284°
2026-04-24 19:35 4.38854 90.48420 33829 ft 489 kts 285°
2026-04-24 19:35 4.40502 90.41827 33828 ft 489 kts 285°
2026-04-24 19:36 4.42247 90.35242 33829 ft 489 kts 287°
2026-04-24 19:36 4.44097 90.28711 33827 ft 489 kts 286°
2026-04-24 19:37 4.45939 90.22180 33827 ft 488 kts 286°
2026-04-24 19:37 4.47777 90.15643 33827 ft 488 kts 286°
2026-04-24 19:38 4.49622 90.09068 33832 ft 488 kts 286°
2026-04-24 19:38 4.51450 90.02546 33839 ft 489 kts 286°
2026-04-24 19:39 4.53278 89.96021 33837 ft 489 kts 286°
2026-04-24 19:39 4.55112 89.89469 33839 ft 489 kts 286°
2026-04-24 19:40 4.56949 89.82906 33842 ft 488 kts 286°
2026-04-24 19:40 4.58776 89.76372 33847 ft 488 kts 286°
2026-04-24 19:41 4.60602 89.69842 33845 ft 489 kts 286°
2026-04-24 19:41 4.62438 89.63274 33840 ft 490 kts 286°
2026-04-24 19:42 4.64274 89.56699 33837 ft 489 kts 286°
2026-04-24 19:42 4.66101 89.50159 33836 ft 490 kts 286°
2026-04-24 19:43 4.67938 89.43577 33832 ft 490 kts 286°
2026-04-24 19:43 4.69764 89.37032 33830 ft 490 kts 286°
2026-04-24 19:44 4.71598 89.30456 33827 ft 490 kts 286°
2026-04-24 19:44 4.73427 89.23898 33827 ft 491 kts 286°
2026-04-24 19:45 4.75261 89.17316 33826 ft 491 kts 286°
2026-04-24 19:45 4.77096 89.10730 33827 ft 491 kts 286°
2026-04-24 19:46 4.78922 89.04174 33826 ft 491 kts 287°
2026-04-24 19:46 4.80756 88.97584 33828 ft 492 kts 287°
2026-04-24 19:47 4.82590 88.90994 33827 ft 491 kts 286°
2026-04-24 19:47 4.84427 88.84388 33828 ft 491 kts 286°
2026-04-24 19:48 4.86256 88.77811 33828 ft 492 kts 286°
2026-04-24 19:48 4.89000 88.67936 33829 ft 491 kts 286°
2026-04-24 19:49 4.92672 88.54713 33828 ft 492 kts 286°
2026-04-24 19:50 4.96315 88.41585 33829 ft 490 kts 286°
2026-04-24 19:51 4.99052 88.31711 33826 ft 490 kts 286°
2026-04-24 19:52 5.01783 88.21856 33826 ft 491 kts 286°
2026-04-24 19:52 5.03615 88.15243 33832 ft 492 kts 286°
2026-04-24 19:53 5.05446 88.08629 33841 ft 490 kts 286°
2026-04-24 19:54 5.08187 87.98708 33847 ft 490 kts 285°
2026-04-24 19:54 5.09925 87.92123 33846 ft 489 kts 285°
2026-04-24 19:55 5.11362 87.86661 33838 ft 491 kts 285°
2026-04-24 19:55 5.13397 87.78934 33830 ft 491 kts 285°
2026-04-24 19:56 5.15136 87.72337 33829 ft 491 kts 285°
2026-04-24 19:56 5.16881 87.65712 33828 ft 489 kts 285°
2026-04-24 19:57 5.18614 87.59132 33829 ft 489 kts 285°
2026-04-24 19:57 5.20350 87.52541 33829 ft 489 kts 285°
2026-04-24 19:58 5.22077 87.45980 33829 ft 489 kts 285°
2026-04-24 19:58 5.23806 87.39408 33829 ft 488 kts 285°
2026-04-24 19:59 5.25533 87.32845 33827 ft 489 kts 285°
2026-04-24 19:59 5.27270 87.26236 33827 ft 488 kts 285°
2026-04-24 20:00 5.29004 87.19637 33827 ft 488 kts 285°
2026-04-24 20:00 5.30733 87.13054 33827 ft 487 kts 285°
2026-04-24 20:01 5.32451 87.06512 33828 ft 488 kts 285°
2026-04-24 20:01 5.34180 86.99922 33827 ft 487 kts 285°
2026-04-24 20:02 5.35920 86.93288 33828 ft 487 kts 285°
2026-04-24 20:02 5.37653 86.86678 33828 ft 487 kts 285°
2026-04-24 20:03 5.39380 86.80087 33828 ft 487 kts 285°
2026-04-24 20:03 5.41119 86.73449 33827 ft 487 kts 285°
2026-04-24 20:04 5.42850 86.66840 33828 ft 487 kts 285°
2026-04-24 20:04 5.44569 86.60268 33828 ft 487 kts 285°
2026-04-24 20:05 5.46284 86.53712 33828 ft 488 kts 285°
2026-04-24 20:05 5.48001 86.47146 33828 ft 487 kts 285°
2026-04-24 20:06 5.49716 86.40583 33837 ft 487 kts 285°
2026-04-24 20:06 5.51435 86.34001 33845 ft 486 kts 284°
2026-04-24 20:07 5.52861 86.28537 33845 ft 486 kts 284°
2026-04-24 20:07 5.54861 86.20873 33845 ft 486 kts 284°
2026-04-24 20:08 5.56574 86.14305 33841 ft 487 kts 284°
2026-04-24 20:08 5.58288 86.07732 33838 ft 487 kts 284°
2026-04-24 20:09 5.59987 86.01211 33833 ft 487 kts 284°
2026-04-24 20:09 5.61658 85.94794 33828 ft 488 kts 284°
2026-04-24 20:10 5.63358 85.88261 33827 ft 486 kts 284°
2026-04-24 20:10 5.65068 85.81689 33828 ft 486 kts 284°
2026-04-24 20:11 5.66784 85.75091 33828 ft 487 kts 284°
2026-04-24 20:11 5.68488 85.68536 33828 ft 487 kts 284°
2026-04-24 20:12 5.70201 85.61943 33828 ft 488 kts 284°
2026-04-24 20:12 5.71915 85.55344 33829 ft 487 kts 284°
2026-04-24 20:13 5.73621 85.48769 33828 ft 487 kts 284°
2026-04-24 20:13 5.75326 85.42197 33827 ft 486 kts 284°
2026-04-24 20:14 5.77035 85.35606 33829 ft 487 kts 284°
2026-04-24 20:14 5.78732 85.29058 33827 ft 488 kts 284°
2026-04-24 20:15 5.80437 85.22473 33827 ft 488 kts 284°
2026-04-24 20:15 5.82147 85.15868 33827 ft 488 kts 284°
2026-04-24 20:16 5.83858 85.09257 33827 ft 487 kts 284°
2026-04-24 20:16 5.85554 85.02698 33828 ft 487 kts 284°
2026-04-24 20:17 5.87252 84.96130 33828 ft 488 kts 284°
2026-04-24 20:17 5.89808 84.86234 33828 ft 487 kts 284°
2026-04-24 20:18 5.91510 84.79641 33828 ft 487 kts 284°
2026-04-24 20:18 5.93208 84.73060 33828 ft 487 kts 284°
2026-04-24 20:19 5.94902 84.66492 33823 ft 487 kts 284°
2026-04-24 20:19 5.96600 84.59906 33821 ft 488 kts 284°
2026-04-24 20:20 5.98305 84.53289 33821 ft 489 kts 284°
2026-04-24 20:20 6.00002 84.46695 33821 ft 488 kts 284°
2026-04-24 20:21 6.01693 84.40125 33826 ft 488 kts 284°
2026-04-24 20:21 6.03390 84.33527 33829 ft 488 kts 284°
2026-04-24 20:22 6.05086 84.26932 33828 ft 487 kts 284°
2026-04-24 20:22 6.06776 84.20355 33829 ft 488 kts 283°
2026-04-24 20:23 6.08461 84.13791 33829 ft 488 kts 283°
2026-04-24 20:23 6.10159 84.07176 33829 ft 488 kts 283°
2026-04-24 20:24 6.11844 84.00609 33826 ft 488 kts 283°
2026-04-24 20:24 6.13538 83.93997 33825 ft 488 kts 283°
2026-04-24 20:25 6.15222 83.87421 33827 ft 486 kts 283°
2026-04-24 20:25 6.16907 83.80840 33827 ft 487 kts 283°
2026-04-24 20:26 6.18586 83.74278 33826 ft 487 kts 283°
2026-04-24 20:26 6.20271 83.67689 33826 ft 486 kts 283°
2026-04-24 20:27 6.21942 83.61150 33827 ft 485 kts 283°
2026-04-24 20:27 6.23616 83.54596 33827 ft 485 kts 283°
2026-04-24 20:28 6.25291 83.48032 33826 ft 485 kts 283°
2026-04-24 20:28 6.26966 83.41470 33827 ft 485 kts 283°
2026-04-24 20:29 6.28631 83.34940 33827 ft 485 kts 283°
2026-04-24 20:29 6.30318 83.28322 33826 ft 484 kts 283°
2026-04-24 20:30 6.31981 83.21792 33827 ft 482 kts 283°
2026-04-24 20:30 6.33648 83.15245 33825 ft 483 kts 283°
2026-04-24 20:31 6.35313 83.08700 33823 ft 482 kts 283°
2026-04-24 20:31 6.36972 83.02176 33816 ft 483 kts 283°
2026-04-24 20:32 6.38629 82.95659 33810 ft 483 kts 283°
2026-04-24 20:32 6.40300 82.89080 33809 ft 483 kts 283°
2026-04-24 20:33 6.41963 82.82527 33807 ft 484 kts 283°
2026-04-24 20:33 6.43625 82.75980 33806 ft 484 kts 283°
2026-04-24 20:34 6.45286 82.69428 33806 ft 483 kts 283°
2026-04-24 20:34 6.46949 82.62866 33807 ft 484 kts 283°
2026-04-24 20:35 6.48595 82.56367 33806 ft 484 kts 283°
2026-04-24 20:35 6.50259 82.49796 33814 ft 484 kts 283°
2026-04-24 20:36 6.51919 82.43234 33820 ft 485 kts 283°
2026-04-24 20:36 6.53587 82.36636 33825 ft 485 kts 283°
2026-04-24 20:37 6.55245 82.30076 33825 ft 485 kts 283°
2026-04-24 20:37 6.56910 82.23485 33828 ft 486 kts 283°
2026-04-24 20:38 6.58569 82.16912 33828 ft 487 kts 283°
2026-04-24 20:38 6.60235 82.10306 33827 ft 486 kts 283°
2026-04-24 20:39 6.61892 82.03734 33826 ft 486 kts 283°
2026-04-24 20:39 6.63547 81.97170 33827 ft 486 kts 283°
2026-04-24 20:40 6.65211 81.90589 33831 ft 486 kts 283°
2026-04-24 20:40 6.66881 81.83975 33831 ft 486 kts 283°
2026-04-24 20:41 6.68534 81.77428 33839 ft 487 kts 283°
2026-04-24 20:41 6.70203 81.70811 33843 ft 487 kts 283°
2026-04-24 20:42 6.71867 81.64208 33843 ft 487 kts 283°
2026-04-24 20:42 6.73525 81.57629 33852 ft 487 kts 283°
2026-04-24 20:43 6.75187 81.51025 33854 ft 487 kts 283°
2026-04-24 20:43 6.76846 81.44434 33854 ft 486 kts 283°
2026-04-24 20:44 6.78508 81.37824 33873 ft 486 kts 283°
2026-04-24 20:44 6.80166 81.31227 33870 ft 486 kts 283°
2026-04-24 20:45 6.81821 81.24636 33885 ft 487 kts 282°
2026-04-24 20:45 6.83483 81.18017 33900 ft 487 kts 283°
2026-04-24 20:46 6.85131 81.11448 33927 ft 486 kts 283°
2026-04-24 20:46 6.86784 81.04851 33961 ft 485 kts 283°
2026-04-24 20:47 6.88437 80.98254 33988 ft 485 kts 282°
2026-04-24 20:47 6.90074 80.91699 34001 ft 485 kts 282°
2026-04-24 20:48 6.91719 80.85110 34057 ft 486 kts 282°
2026-04-24 20:48 6.93370 80.78492 34095 ft 486 kts 283°
2026-04-24 20:49 6.95015 80.71891 34124 ft 487 kts 282°
2026-04-24 20:49 6.96656 80.65307 34074 ft 487 kts 283°
2026-04-24 20:50 6.98300 80.58706 34044 ft 488 kts 283°
2026-04-24 20:50 6.99955 80.52055 33986 ft 487 kts 283°
2026-04-24 20:51 7.01599 80.45445 33952 ft 487 kts 282°
2026-04-24 20:51 7.03245 80.38824 33923 ft 487 kts 283°
2026-04-24 20:52 7.04880 80.32238 33902 ft 488 kts 283°
2026-04-24 20:52 7.06526 80.25609 33874 ft 489 kts 282°
2026-04-24 20:53 7.08185 80.18922 33868 ft 490 kts 282°
2026-04-24 20:53 7.09833 80.12271 33850 ft 490 kts 283°
2026-04-24 20:54 7.11485 80.05603 33843 ft 489 kts 283°
2026-04-24 20:54 7.13133 79.98948 33840 ft 489 kts 283°
2026-04-24 20:55 7.14779 79.92297 33835 ft 488 kts 283°
2026-04-24 20:55 7.16695 79.85731 33825 ft 490 kts 292°
2026-04-24 20:56 7.19591 79.79514 33825 ft 492 kts 294°
2026-04-24 20:56 7.22529 79.73330 33814 ft 490 kts 294°
2026-04-24 20:57 7.25478 79.67115 33811 ft 491 kts 294°
2026-04-24 20:57 7.28407 79.60935 33807 ft 490 kts 294°
2026-04-24 20:58 7.31341 79.54740 33805 ft 489 kts 294°
2026-04-24 20:58 7.34251 79.48593 33803 ft 489 kts 294°
2026-04-24 20:59 7.37179 79.42403 33801 ft 489 kts 294°
2026-04-24 20:59 7.40105 79.36217 33798 ft 489 kts 294°
2026-04-24 21:00 7.43027 79.30034 33799 ft 489 kts 294°
2026-04-24 21:00 7.45936 79.23878 33797 ft 489 kts 294°
2026-04-24 21:01 7.48867 79.17673 33792 ft 487 kts 294°
2026-04-24 21:01 7.51753 79.11553 33783 ft 487 kts 293°
2026-04-24 21:02 7.54466 79.05281 33785 ft 489 kts 291°
2026-04-24 21:02 7.57150 78.99008 33794 ft 487 kts 291°
2026-04-24 21:03 7.59830 78.92763 33803 ft 487 kts 291°
2026-04-24 21:03 7.62516 78.86510 33806 ft 486 kts 291°
2026-04-24 21:04 7.65194 78.80280 33807 ft 486 kts 291°
2026-04-24 21:04 7.67867 78.74062 33808 ft 485 kts 291°
2026-04-24 21:05 7.70547 78.67825 33809 ft 485 kts 291°
2026-04-24 21:05 7.73237 78.61565 33807 ft 485 kts 291°
2026-04-24 21:06 7.75899 78.55366 33808 ft 485 kts 291°
2026-04-24 21:06 7.78580 78.49123 33799 ft 485 kts 291°
2026-04-24 21:07 7.81254 78.42890 33788 ft 485 kts 291°
2026-04-24 21:07 7.83932 78.36646 33787 ft 486 kts 291°
2026-04-24 21:08 7.86606 78.30409 33790 ft 487 kts 291°
2026-04-24 21:08 7.89281 78.24165 33789 ft 486 kts 291°
2026-04-24 21:09 7.91958 78.17914 33788 ft 485 kts 291°
2026-04-24 21:09 7.94660 78.11701 33786 ft 484 kts 292°
2026-04-24 21:10 7.97428 78.05496 33788 ft 484 kts 292°
2026-04-24 21:10 8.00182 77.99309 33788 ft 485 kts 292°
2026-04-24 21:11 8.02935 77.93117 33788 ft 485 kts 292°
2026-04-24 21:11 8.05688 77.86921 33789 ft 486 kts 292°
2026-04-24 21:12 8.08442 77.80718 33791 ft 485 kts 292°
2026-04-24 21:12 8.11196 77.74509 33787 ft 486 kts 292°
2026-04-24 21:13 8.13946 77.68305 33789 ft 486 kts 292°
2026-04-24 21:13 8.16707 77.62077 33792 ft 486 kts 292°
2026-04-24 21:14 8.19469 77.55839 33794 ft 486 kts 292°
2026-04-24 21:14 8.22229 77.49604 33800 ft 487 kts 292°
2026-04-24 21:15 8.24980 77.43388 33801 ft 486 kts 292°
2026-04-24 21:15 8.27738 77.37151 33813 ft 487 kts 292°
2026-04-24 21:16 8.30508 77.30887 33827 ft 487 kts 291°
2026-04-24 21:16 8.33251 77.24677 33841 ft 487 kts 291°
2026-04-24 21:17 8.36009 77.18433 33840 ft 486 kts 291°
2026-04-24 21:17 8.38757 77.12208 33836 ft 486 kts 291°
2026-04-24 21:18 8.41524 77.05934 33828 ft 487 kts 291°
2026-04-24 21:18 8.44274 76.99697 33821 ft 486 kts 291°
2026-04-24 21:19 8.47026 76.93449 33815 ft 486 kts 290°
2026-04-24 21:19 8.49282 76.87073 33816 ft 485 kts 286°
2026-04-24 21:20 8.52457 76.77556 33813 ft 484 kts 285°
2026-04-24 21:21 8.54595 76.71149 33808 ft 485 kts 285°
2026-04-24 21:21 8.56747 76.64703 33805 ft 485 kts 285°
2026-04-24 21:22 8.58901 76.58248 33797 ft 484 kts 285°
2026-04-24 21:22 8.61044 76.51820 33793 ft 484 kts 285°
2026-04-24 21:23 8.63199 76.45354 33790 ft 485 kts 285°
2026-04-24 21:23 8.65338 76.38934 33793 ft 484 kts 286°
2026-04-24 21:24 8.67491 76.32468 33792 ft 484 kts 285°
2026-04-24 21:24 8.69632 76.26035 33790 ft 484 kts 285°
2026-04-24 21:25 8.71769 76.19607 33792 ft 484 kts 285°
2026-04-24 21:25 8.73917 76.13144 33791 ft 485 kts 285°
2026-04-24 21:26 8.76047 76.06729 33799 ft 486 kts 285°
2026-04-24 21:26 8.78205 76.00228 33806 ft 487 kts 285°
2026-04-24 21:27 8.80345 75.93776 33808 ft 486 kts 285°
2026-04-24 21:27 8.82492 75.87299 33808 ft 487 kts 285°
2026-04-24 21:28 8.84644 75.80804 33808 ft 487 kts 285°
2026-04-24 21:28 8.86781 75.74351 33810 ft 486 kts 285°
2026-04-24 21:29 8.88929 75.67857 33808 ft 488 kts 285°
2026-04-24 21:29 8.91077 75.61359 33808 ft 488 kts 285°
2026-04-24 21:30 8.93216 75.54889 33811 ft 489 kts 285°
2026-04-24 21:30 8.95369 75.48367 33810 ft 487 kts 285°
2026-04-24 21:31 8.97513 75.41872 33809 ft 489 kts 285°
2026-04-24 21:31 8.99658 75.35368 33812 ft 489 kts 284°
2026-04-24 21:32 9.01811 75.28835 33811 ft 489 kts 284°
2026-04-24 21:32 9.03951 75.22337 33809 ft 487 kts 285°
2026-04-24 21:33 9.06094 75.15826 33812 ft 489 kts 284°
2026-04-24 21:33 9.08229 75.09337 33809 ft 488 kts 284°
2026-04-24 21:34 9.10377 75.02803 33795 ft 488 kts 284°
2026-04-24 21:34 9.12515 74.96292 33784 ft 489 kts 284°
2026-04-24 21:35 9.14648 74.89797 33781 ft 486 kts 284°
2026-04-24 21:35 9.16770 74.83329 33783 ft 485 kts 284°
2026-04-24 21:36 9.18902 74.76826 33783 ft 484 kts 284°
2026-04-24 21:36 9.21010 74.70391 33781 ft 487 kts 284°
2026-04-24 21:37 9.23136 74.63899 33789 ft 484 kts 284°
2026-04-24 21:37 9.25249 74.57439 33792 ft 485 kts 284°
2026-04-24 21:38 9.27361 74.50982 33797 ft 483 kts 284°
2026-04-24 21:38 9.29463 74.44548 33805 ft 482 kts 284°
2026-04-24 21:39 9.31550 74.38158 33806 ft 482 kts 284°
2026-04-24 21:39 9.33652 74.31716 33806 ft 479 kts 283°
2026-04-24 21:40 9.35746 74.25296 33804 ft 479 kts 284°
2026-04-24 21:40 9.37821 74.18928 33807 ft 480 kts 284°
2026-04-24 21:41 9.39895 74.12560 33807 ft 479 kts 284°
2026-04-24 21:41 9.41987 74.06175 33805 ft 477 kts 284°
2026-04-24 21:42 9.44116 73.99786 33806 ft 479 kts 284°
2026-04-24 21:42 9.46228 73.93441 33805 ft 478 kts 284°
2026-04-24 21:43 9.48352 73.87054 33806 ft 477 kts 284°
2026-04-24 21:43 9.50450 73.80737 33805 ft 477 kts 284°
2026-04-24 21:44 9.52569 73.74352 33805 ft 475 kts 284°
2026-04-24 21:44 9.54659 73.68050 33805 ft 476 kts 284°
2026-04-24 21:45 9.56760 73.61710 33805 ft 476 kts 284°
2026-04-24 21:45 9.58860 73.55367 33806 ft 476 kts 284°
2026-04-24 21:46 9.60956 73.49036 33804 ft 474 kts 284°
2026-04-24 21:46 9.63059 73.42675 33802 ft 475 kts 283°
2026-04-24 21:47 9.65154 73.36336 33797 ft 474 kts 283°
2026-04-24 21:47 9.67243 73.30010 33793 ft 474 kts 283°
2026-04-24 21:48 9.69333 73.23679 33793 ft 474 kts 283°
2026-04-24 21:48 9.71418 73.17357 33796 ft 473 kts 283°
2026-04-24 21:49 9.73488 73.11078 33804 ft 472 kts 283°
2026-04-24 21:49 9.75564 73.04773 33810 ft 471 kts 283°
2026-04-24 21:50 9.77636 72.98478 33810 ft 471 kts 283°
2026-04-24 21:50 9.79710 72.92170 33809 ft 472 kts 283°
2026-04-24 21:51 9.81787 72.85852 33809 ft 472 kts 283°
2026-04-24 21:51 9.83861 72.79540 33809 ft 472 kts 283°
2026-04-24 21:52 9.85922 72.73260 33808 ft 472 kts 283°
2026-04-24 21:52 9.87998 72.66928 33811 ft 473 kts 283°
2026-04-24 21:53 9.90056 72.60652 33810 ft 471 kts 283°
2026-04-24 21:53 9.92131 72.54318 33808 ft 472 kts 283°
2026-04-24 21:54 9.94187 72.48036 33805 ft 471 kts 283°
2026-04-24 21:54 9.96283 72.41732 33801 ft 474 kts 287°
2026-04-24 21:55 9.99534 72.35855 33812 ft 484 kts 298°
2026-04-24 21:55 10.03291 72.30187 33814 ft 483 kts 298°
2026-04-24 21:56 10.07042 72.24529 33813 ft 484 kts 298°
2026-04-24 21:56 10.10795 72.18865 33807 ft 484 kts 298°
2026-04-24 21:57 10.14545 72.13200 33803 ft 485 kts 298°
2026-04-24 21:57 10.18292 72.07536 33803 ft 483 kts 298°
2026-04-24 21:58 10.22066 72.01825 33804 ft 485 kts 298°
2026-04-24 21:58 10.25813 71.96156 33805 ft 484 kts 298°
2026-04-24 21:59 10.29565 71.90475 33814 ft 484 kts 298°
2026-04-24 21:59 10.33295 71.84823 33821 ft 485 kts 298°
2026-04-24 22:00 10.37057 71.79121 33818 ft 483 kts 298°
2026-04-24 22:00 10.40806 71.73434 33812 ft 485 kts 298°
2026-04-24 22:01 10.44542 71.67767 33809 ft 485 kts 298°
2026-04-24 22:01 10.48296 71.62068 33805 ft 485 kts 298°
2026-04-24 22:02 10.52037 71.56386 33802 ft 483 kts 298°
2026-04-24 22:02 10.55780 71.50699 33804 ft 484 kts 298°
2026-04-24 22:03 10.59502 71.45039 33804 ft 483 kts 298°
2026-04-24 22:03 10.63234 71.39362 33804 ft 484 kts 298°
2026-04-24 22:04 10.66976 71.33665 33811 ft 485 kts 297°
2026-04-24 22:04 10.70691 71.28008 33809 ft 483 kts 297°
2026-04-24 22:05 10.74421 71.22325 33811 ft 485 kts 297°
2026-04-24 22:05 10.78150 71.16641 33812 ft 483 kts 297°
2026-04-24 22:06 10.81880 71.10952 33812 ft 483 kts 297°
2026-04-24 22:06 10.85610 71.05260 33811 ft 484 kts 297°
2026-04-24 22:07 10.89335 70.99574 33813 ft 484 kts 297°
2026-04-24 22:07 10.93076 70.93858 33809 ft 483 kts 297°
2026-04-24 22:08 10.96811 70.88149 33812 ft 484 kts 297°
2026-04-24 22:08 11.00536 70.82452 33810 ft 483 kts 297°
2026-04-24 22:09 11.04246 70.76776 33812 ft 484 kts 297°
2026-04-24 22:09 11.07968 70.71078 33816 ft 484 kts 297°
2026-04-24 22:10 11.11690 70.65378 33807 ft 482 kts 297°
2026-04-24 22:10 11.15392 70.59702 33815 ft 482 kts 297°
2026-04-24 22:11 11.19106 70.54007 33822 ft 486 kts 297°
2026-04-24 22:11 11.22823 70.48305 33816 ft 484 kts 297°
2026-04-24 22:12 11.26560 70.42568 33820 ft 483 kts 297°
2026-04-24 22:12 11.30266 70.36876 33817 ft 485 kts 297°
2026-04-24 22:13 11.34024 70.31100 33821 ft 484 kts 297°
2026-04-24 22:13 11.37763 70.25352 33823 ft 485 kts 297°
2026-04-24 22:14 11.41517 70.19576 33824 ft 484 kts 297°
2026-04-24 22:14 11.45200 70.13907 33827 ft 483 kts 297°
2026-04-24 22:15 11.48931 70.08161 33826 ft 483 kts 297°
2026-04-24 22:15 11.52641 70.02444 33821 ft 483 kts 297°
2026-04-24 22:16 11.56343 69.96735 33822 ft 483 kts 297°
2026-04-24 22:16 11.60063 69.90994 33817 ft 485 kts 297°
2026-04-24 22:17 11.63760 69.85274 33809 ft 482 kts 297°
2026-04-24 22:17 11.67492 69.79463 33807 ft 482 kts 297°
2026-04-24 22:18 11.71168 69.73737 33806 ft 484 kts 297°
2026-04-24 22:18 11.74851 69.67999 33805 ft 480 kts 297°
2026-04-24 22:19 11.78519 69.62281 33810 ft 480 kts 297°
2026-04-24 22:19 11.82163 69.56596 33809 ft 480 kts 297°
2026-04-24 22:20 11.85802 69.50917 33808 ft 479 kts 297°
2026-04-24 22:20 11.89451 69.45219 33809 ft 479 kts 297°
2026-04-24 22:21 11.93116 69.39492 33818 ft 478 kts 297°
2026-04-24 22:21 11.96762 69.33791 33832 ft 480 kts 297°
2026-04-24 22:22 12.00408 69.28090 33833 ft 477 kts 297°
2026-04-24 22:22 12.04036 69.22411 33834 ft 476 kts 297°
2026-04-24 22:23 12.07632 69.16780 33835 ft 474 kts 296°
2026-04-24 22:23 12.11244 69.11120 33823 ft 474 kts 297°
2026-04-24 22:24 12.14851 69.05462 33823 ft 477 kts 296°
2026-04-24 22:24 12.18501 68.99736 33823 ft 476 kts 297°
2026-04-24 22:25 12.22158 68.94022 33824 ft 474 kts 297°
2026-04-24 22:25 12.25790 68.88346 33820 ft 474 kts 297°
2026-04-24 22:26 12.29389 68.82718 33824 ft 476 kts 297°
2026-04-24 22:26 12.32995 68.77076 33821 ft 473 kts 297°
2026-04-24 22:27 12.36617 68.71405 33822 ft 472 kts 297°
2026-04-24 22:27 12.40222 68.65756 33821 ft 473 kts 297°
2026-04-24 22:28 12.43828 68.60104 33822 ft 471 kts 297°
2026-04-24 22:28 12.47424 68.54462 33821 ft 471 kts 297°
2026-04-24 22:29 12.52795 68.46030 33822 ft 471 kts 297°
2026-04-24 22:29 12.56375 68.40406 33820 ft 468 kts 297°
2026-04-24 22:30 12.59958 68.34771 33817 ft 469 kts 297°
2026-04-24 22:30 12.63539 68.29139 33831 ft 467 kts 297°
2026-04-24 22:31 12.67103 68.23529 33833 ft 467 kts 297°
2026-04-24 22:31 12.70683 68.17891 33834 ft 466 kts 297°
2026-04-24 22:32 12.74230 68.12301 33836 ft 468 kts 297°
2026-04-24 22:32 12.77777 68.06708 33837 ft 467 kts 297°
2026-04-24 22:33 12.81308 68.01138 33838 ft 465 kts 297°
2026-04-24 22:33 12.84865 67.95576 33835 ft 467 kts 297°
2026-04-24 22:34 12.88448 67.89979 33818 ft 466 kts 298°
2026-04-24 22:34 12.92045 67.84353 33827 ft 467 kts 298°
2026-04-24 22:35 12.95605 67.78782 33824 ft 464 kts 298°
2026-04-24 22:35 12.99167 67.73202 33823 ft 465 kts 298°
2026-04-24 22:36 13.02729 67.67619 33825 ft 466 kts 298°
2026-04-24 22:36 13.06250 67.62098 33825 ft 465 kts 298°
2026-04-24 22:37 13.09791 67.56541 33819 ft 466 kts 298°
2026-04-24 22:37 13.13368 67.50923 33824 ft 467 kts 298°
2026-04-24 22:38 13.16917 67.45348 33817 ft 468 kts 298°
2026-04-24 22:38 13.20485 67.39738 33817 ft 464 kts 298°
2026-04-24 22:39 13.24051 67.34128 33821 ft 464 kts 298°
2026-04-24 22:39 13.27614 67.28519 33823 ft 465 kts 298°
2026-04-24 22:40 13.31208 67.22856 33825 ft 466 kts 299°
2026-04-24 22:40 13.34779 67.17228 33839 ft 467 kts 299°
2026-04-24 22:41 13.38350 67.11596 33841 ft 467 kts 299°
2026-04-24 22:41 13.41923 67.05956 33849 ft 467 kts 299°
2026-04-24 22:42 13.45488 67.00326 33845 ft 469 kts 299°
2026-04-24 22:42 13.49054 66.94692 33845 ft 467 kts 299°
2026-04-24 22:43 13.52651 66.89003 33842 ft 465 kts 299°
2026-04-24 22:43 13.56222 66.83352 33846 ft 466 kts 300°
2026-04-24 22:44 13.59767 66.77738 33845 ft 467 kts 300°
2026-04-24 22:44 13.63361 66.72044 33842 ft 465 kts 300°
2026-04-24 22:45 13.66915 66.66409 33845 ft 465 kts 300°
2026-04-24 22:45 13.70463 66.60780 33840 ft 467 kts 300°
2026-04-24 22:46 13.74036 66.55107 33840 ft 464 kts 301°
2026-04-24 22:46 13.77591 66.49460 33833 ft 465 kts 301°
2026-04-24 22:47 13.81142 66.43814 33827 ft 465 kts 301°
2026-04-24 22:47 13.84697 66.38158 33824 ft 465 kts 301°
2026-04-24 22:48 13.88262 66.32484 33829 ft 465 kts 301°
2026-04-24 22:48 13.91812 66.26829 33834 ft 466 kts 301°
2026-04-24 22:49 13.95378 66.21144 33848 ft 466 kts 301°
2026-04-24 22:49 13.98946 66.15453 33840 ft 465 kts 302°
2026-04-24 22:50 14.02468 66.09830 33841 ft 465 kts 302°
2026-04-24 22:50 14.06032 66.04138 33849 ft 467 kts 302°
2026-04-24 22:51 14.09611 65.98417 33847 ft 466 kts 302°
2026-04-24 22:51 14.13165 65.92734 33850 ft 468 kts 302°
2026-04-24 22:52 14.16700 65.87074 33852 ft 468 kts 302°
2026-04-24 22:52 14.20255 65.81381 33848 ft 467 kts 302°
2026-04-24 22:53 14.23798 65.75703 33849 ft 466 kts 302°
2026-04-24 22:53 14.27327 65.70042 33847 ft 466 kts 302°
2026-04-24 22:54 14.30854 65.64381 33848 ft 467 kts 302°
2026-04-24 22:54 14.34382 65.58715 33852 ft 466 kts 302°
2026-04-24 22:55 14.37904 65.53055 33846 ft 465 kts 302°
2026-04-24 22:55 14.41415 65.47407 33846 ft 465 kts 303°
2026-04-24 22:56 14.44939 65.41735 33847 ft 466 kts 303°
2026-04-24 22:56 14.48452 65.36077 33849 ft 466 kts 303°
2026-04-24 22:57 14.51973 65.30402 33850 ft 466 kts 303°
2026-04-24 22:57 14.55481 65.24743 33848 ft 466 kts 303°
2026-04-24 22:58 14.59000 65.19064 33850 ft 466 kts 303°
2026-04-24 22:58 14.62544 65.13403 33846 ft 466 kts 303°
2026-04-24 22:59 14.66078 65.07769 33853 ft 466 kts 303°
2026-04-24 23:00 14.71400 64.99271 33866 ft 467 kts 303°
2026-04-24 23:00 14.74951 64.93594 33868 ft 466 kts 303°
2026-04-24 23:01 14.78502 64.87914 33867 ft 466 kts 303°
2026-04-24 23:01 14.82033 64.82259 33866 ft 467 kts 304°
2026-04-24 23:02 14.85573 64.76586 33866 ft 466 kts 304°
2026-04-24 23:02 14.89126 64.70890 33865 ft 467 kts 304°
2026-04-24 23:03 14.92678 64.65190 33866 ft 466 kts 304°
2026-04-24 23:03 14.96234 64.59480 33865 ft 467 kts 304°
2026-04-24 23:04 14.99798 64.53753 33864 ft 466 kts 304°
2026-04-24 23:04 15.03324 64.48081 33864 ft 467 kts 304°
2026-04-24 23:05 15.06875 64.42368 33864 ft 466 kts 304°
2026-04-24 23:05 15.10407 64.36678 33866 ft 466 kts 304°
2026-04-24 23:06 15.13945 64.30975 33872 ft 467 kts 303°
2026-04-24 23:06 15.17492 64.25255 33868 ft 467 kts 303°
2026-04-24 23:07 15.21057 64.19501 33868 ft 467 kts 303°
2026-04-24 23:07 15.24571 64.13823 33869 ft 466 kts 303°
2026-04-24 23:08 15.28070 64.08168 33867 ft 466 kts 303°
2026-04-24 23:08 15.31594 64.02467 33861 ft 467 kts 303°
2026-04-24 23:09 15.35120 63.96759 33859 ft 467 kts 303°
2026-04-24 23:09 15.38634 63.91065 33855 ft 467 kts 303°
2026-04-24 23:10 15.42153 63.85360 33855 ft 466 kts 303°
2026-04-24 23:10 15.45659 63.79671 33859 ft 466 kts 304°
2026-04-24 23:11 15.49156 63.73992 33863 ft 466 kts 303°
2026-04-24 23:11 15.52678 63.68269 33861 ft 466 kts 303°
2026-04-24 23:12 15.56177 63.62579 33861 ft 467 kts 304°
2026-04-24 23:12 15.59692 63.56858 33866 ft 467 kts 304°
2026-04-24 23:13 15.63197 63.51149 33868 ft 467 kts 304°
2026-04-24 23:13 15.66714 63.45416 33867 ft 466 kts 304°
2026-04-24 23:14 15.70219 63.39698 33867 ft 466 kts 304°
2026-04-24 23:14 15.73736 63.33958 33867 ft 467 kts 304°
2026-04-24 23:15 15.77252 63.28214 33868 ft 467 kts 304°
2026-04-24 23:15 15.80767 63.22466 33867 ft 467 kts 304°
2026-04-24 23:16 15.84279 63.16721 34247 ft 475 kts 304°
2026-04-24 23:16 15.86017 63.13875 34998 ft 468 kts 304°
2026-04-24 23:16 15.87752 63.11032 35691 ft 462 kts 304°
2026-04-24 23:16 15.89489 63.08186 35857 ft 465 kts 304°
2026-04-24 23:17 15.91227 63.05336 35865 ft 462 kts 304°
2026-04-24 23:17 15.94656 62.99713 35866 ft 461 kts 304°
2026-04-24 23:18 15.98073 62.94105 35864 ft 461 kts 304°
2026-04-24 23:18 16.01263 62.88865 35865 ft 460 kts 304°
2026-04-24 23:19 16.04656 62.83287 35867 ft 460 kts 304°
2026-04-24 23:19 16.08083 62.77650 35865 ft 459 kts 304°
2026-04-24 23:20 16.11493 62.72037 35876 ft 460 kts 304°
2026-04-24 23:20 16.14884 62.66449 35872 ft 458 kts 304°
2026-04-24 23:21 16.18284 62.60842 35872 ft 458 kts 304°
2026-04-24 23:21 16.21665 62.55264 35872 ft 458 kts 304°
2026-04-24 23:22 16.25076 62.49631 35873 ft 458 kts 304°
2026-04-24 23:22 16.28459 62.44039 35872 ft 457 kts 304°
2026-04-24 23:23 16.31837 62.38452 35868 ft 457 kts 304°
2026-04-24 23:23 16.35226 62.32842 35870 ft 457 kts 304°
2026-04-24 23:24 16.38601 62.27251 35870 ft 456 kts 304°
2026-04-24 23:24 16.41977 62.21655 35873 ft 456 kts 304°
2026-04-24 23:25 16.45347 62.16063 35877 ft 456 kts 304°
2026-04-24 23:25 16.48707 62.10484 35884 ft 456 kts 304°
2026-04-24 23:26 16.52075 62.04887 35889 ft 456 kts 304°
2026-04-24 23:26 16.55441 61.99289 35889 ft 455 kts 304°
2026-04-24 23:27 16.58809 61.93682 35890 ft 455 kts 304°
2026-04-24 23:27 16.62152 61.88113 35888 ft 456 kts 304°
2026-04-24 23:28 16.65517 61.82504 35891 ft 454 kts 305°
2026-04-24 23:28 16.68848 61.76947 35887 ft 454 kts 304°
2026-04-24 23:29 16.72183 61.71377 35887 ft 453 kts 304°
2026-04-24 23:29 16.75515 61.65809 35887 ft 453 kts 304°
2026-04-24 23:30 16.78850 61.60233 35889 ft 453 kts 305°
2026-04-24 23:30 16.82192 61.54639 35886 ft 453 kts 304°
2026-04-24 23:31 16.85523 61.49060 35887 ft 452 kts 305°
2026-04-24 23:31 16.88836 61.43505 35885 ft 453 kts 305°
2026-04-24 23:32 16.92174 61.37907 35884 ft 453 kts 304°
2026-04-24 23:32 16.95493 61.32333 35888 ft 452 kts 304°
2026-04-24 23:33 16.98797 61.26780 35883 ft 451 kts 304°
2026-04-24 23:33 17.02122 61.21188 35887 ft 451 kts 304°
2026-04-24 23:34 17.05419 61.15640 35887 ft 451 kts 304°
2026-04-24 23:34 17.08722 61.10074 35882 ft 451 kts 304°
2026-04-24 23:35 17.12017 61.04520 35897 ft 451 kts 304°
2026-04-24 23:35 17.15311 60.98961 35898 ft 450 kts 304°
2026-04-24 23:36 17.18591 60.93423 35892 ft 448 kts 304°
2026-04-24 23:36 17.21880 60.87865 35894 ft 449 kts 304°
2026-04-24 23:37 17.25180 60.82283 35897 ft 450 kts 304°
2026-04-24 23:37 17.30084 60.73978 35889 ft 448 kts 304°
2026-04-24 23:38 17.33378 60.68396 35891 ft 448 kts 305°
2026-04-24 23:38 17.36630 60.62878 35889 ft 447 kts 305°
2026-04-24 23:39 17.39907 60.57315 35892 ft 448 kts 305°
2026-04-24 23:39 17.43158 60.51791 35888 ft 445 kts 304°
2026-04-24 23:40 17.46401 60.46276 35885 ft 446 kts 304°
2026-04-24 23:40 17.49653 60.40742 35888 ft 444 kts 305°
2026-04-24 23:41 17.52882 60.35242 35885 ft 446 kts 304°
2026-04-24 23:41 17.56132 60.29703 35891 ft 445 kts 304°
2026-04-24 23:42 17.59348 60.24215 35888 ft 444 kts 304°
2026-04-24 23:42 17.62580 60.18695 35889 ft 442 kts 304°
2026-04-24 23:43 17.65805 60.13185 35885 ft 443 kts 304°
2026-04-24 23:43 17.69025 60.07678 35887 ft 444 kts 304°
2026-04-24 23:44 17.72234 60.02184 35885 ft 442 kts 304°
2026-04-24 23:44 17.75525 59.96759 35888 ft 441 kts 307°
2026-04-24 23:45 17.78963 59.91427 35888 ft 441 kts 307°
2026-04-24 23:45 17.82384 59.86097 35882 ft 441 kts 307°
2026-04-24 23:46 17.85801 59.80757 35884 ft 440 kts 307°
2026-04-24 23:46 17.89205 59.75427 35883 ft 441 kts 306°
2026-04-24 23:47 17.92607 59.70091 35883 ft 440 kts 306°
2026-04-24 23:47 17.96011 59.64745 35881 ft 439 kts 307°
2026-04-24 23:48 17.99395 59.59427 35883 ft 441 kts 307°
2026-04-24 23:48 18.02808 59.54058 35878 ft 439 kts 306°
2026-04-24 23:49 18.06213 59.48699 35880 ft 440 kts 306°
2026-04-24 23:49 18.09604 59.43355 35880 ft 440 kts 306°
2026-04-24 23:50 18.12983 59.38025 35891 ft 439 kts 307°
2026-04-24 23:50 18.16361 59.32694 35898 ft 440 kts 306°
2026-04-24 23:51 18.19761 59.27323 35892 ft 440 kts 306°
2026-04-24 23:51 18.23063 59.22102 35883 ft 440 kts 306°
2026-04-24 23:52 18.26444 59.16753 35886 ft 439 kts 306°
2026-04-24 23:52 18.29809 59.11424 35883 ft 439 kts 306°
2026-04-24 23:53 18.33190 59.06065 35879 ft 438 kts 306°
2026-04-24 23:53 18.36550 59.00736 35881 ft 439 kts 306°
2026-04-24 23:54 18.39945 58.95346 35872 ft 439 kts 306°
2026-04-24 23:54 18.43295 58.90023 35872 ft 438 kts 306°
2026-04-24 23:55 18.46682 58.84638 35863 ft 440 kts 306°
2026-04-24 23:55 18.50033 58.79306 35865 ft 439 kts 306°
2026-04-24 23:56 18.53391 58.73956 35862 ft 437 kts 306°
2026-04-24 23:56 18.56759 58.68588 35867 ft 437 kts 306°
2026-04-24 23:57 18.60110 58.63241 35861 ft 441 kts 306°
2026-04-24 23:57 18.63477 58.57864 35854 ft 438 kts 306°
2026-04-24 23:58 18.66828 58.52508 35855 ft 439 kts 306°
2026-04-24 23:58 18.70198 58.47117 35865 ft 439 kts 306°
2026-04-24 23:59 18.73919 58.42067 35865 ft 436 kts 314°
2026-04-24 23:59 18.77998 58.37359 35869 ft 436 kts 314°
2026-04-25 00:00 18.82124 58.32593 35877 ft 438 kts 314°
2026-04-25 00:00 18.86137 58.27951 35873 ft 439 kts 314°
2026-04-25 00:01 18.90212 58.23231 35867 ft 437 kts 314°
2026-04-25 00:01 18.94314 58.18475 35866 ft 437 kts 314°
2026-04-25 00:02 18.98393 58.13741 35867 ft 438 kts 313°
2026-04-25 00:02 19.02498 58.08973 35866 ft 437 kts 313°
2026-04-25 00:03 19.06595 58.04211 35863 ft 438 kts 313°
2026-04-25 00:03 19.10726 57.99406 35873 ft 440 kts 313°
2026-04-25 00:04 19.14871 57.94581 35873 ft 439 kts 313°
2026-04-25 00:04 19.19646 57.89016 35878 ft 440 kts 313°
2026-04-25 00:05 19.23075 57.85016 35877 ft 438 kts 313°
2026-04-25 00:05 19.27162 57.80247 35871 ft 440 kts 313°
2026-04-25 00:06 19.31281 57.75436 35876 ft 440 kts 313°
2026-04-25 00:06 19.35365 57.70661 35869 ft 439 kts 313°
2026-04-25 00:07 19.39484 57.65843 35877 ft 439 kts 313°
2026-04-25 00:07 19.43560 57.61071 35870 ft 438 kts 313°
2026-04-25 00:08 19.47658 57.56269 35873 ft 439 kts 313°
2026-04-25 00:08 19.51758 57.51461 35880 ft 439 kts 313°
2026-04-25 00:09 19.55848 57.46660 35885 ft 438 kts 313°
2026-04-25 00:09 19.59935 57.41859 35885 ft 439 kts 313°
2026-04-25 00:10 19.64017 57.37060 35888 ft 439 kts 313°
2026-04-25 00:10 19.68133 57.32218 35896 ft 439 kts 313°
2026-04-25 00:11 19.72008 57.27655 35900 ft 440 kts 313°
2026-04-25 00:11 19.76096 57.22837 35896 ft 438 kts 313°
2026-04-25 00:12 19.80019 57.18211 35897 ft 440 kts 313°
2026-04-25 00:12 19.84092 57.13402 35892 ft 439 kts 313°
2026-04-25 00:13 19.88178 57.08575 35892 ft 439 kts 313°
2026-04-25 00:13 19.92257 57.03752 35883 ft 436 kts 313°
2026-04-25 00:14 19.96321 56.98944 35890 ft 438 kts 313°
2026-04-25 00:14 20.00398 56.94115 35888 ft 439 kts 313°
2026-04-25 00:15 20.04465 56.89294 35886 ft 437 kts 313°
2026-04-25 00:15 20.08529 56.84473 35882 ft 437 kts 313°
2026-04-25 00:16 20.12588 56.79653 35891 ft 437 kts 313°
2026-04-25 00:16 20.16674 56.74798 35894 ft 438 kts 313°
2026-04-25 00:17 20.20737 56.69961 35895 ft 438 kts 312°
2026-04-25 00:17 20.24768 56.65154 35898 ft 438 kts 312°
2026-04-25 00:18 20.28828 56.60309 35899 ft 437 kts 312°
2026-04-25 00:18 20.32899 56.55447 35901 ft 438 kts 312°
2026-04-25 00:19 20.36951 56.50602 35895 ft 438 kts 312°
2026-04-25 00:19 20.40994 56.45763 35900 ft 437 kts 312°
2026-04-25 00:20 20.45041 56.40912 35892 ft 436 kts 312°
2026-04-25 00:20 20.49050 56.36102 35888 ft 435 kts 312°
2026-04-25 00:21 20.53118 56.31218 35888 ft 435 kts 312°
2026-04-25 00:21 20.57127 56.26399 35889 ft 437 kts 312°
2026-04-25 00:22 20.60942 56.21810 35885 ft 437 kts 311°
2026-04-25 00:22 20.64964 56.16968 35880 ft 437 kts 312°
2026-04-25 00:23 20.69005 56.12099 35879 ft 437 kts 311°
2026-04-25 00:23 20.73008 56.07271 35874 ft 437 kts 311°
2026-04-25 00:24 20.77057 56.02383 35869 ft 435 kts 311°
2026-04-25 00:24 20.81058 55.97550 35870 ft 436 kts 311°
2026-04-25 00:25 20.85072 55.92696 35868 ft 435 kts 311°
2026-04-25 00:25 20.89074 55.87854 35866 ft 436 kts 311°
2026-04-25 00:26 20.93105 55.82975 35865 ft 437 kts 311°
2026-04-25 00:26 20.97113 55.78121 35862 ft 437 kts 311°
2026-04-25 00:27 21.01134 55.73247 35863 ft 434 kts 311°
2026-04-25 00:27 21.05131 55.68397 35862 ft 436 kts 311°
2026-04-25 00:28 21.09134 55.63535 35862 ft 437 kts 311°
2026-04-25 00:28 21.13163 55.58637 35870 ft 437 kts 311°
2026-04-25 00:29 21.17190 55.53738 35867 ft 437 kts 311°
2026-04-25 00:29 21.21207 55.48846 35865 ft 436 kts 311°
2026-04-25 00:30 21.24987 55.43772 35867 ft 436 kts 302°
2026-04-25 00:30 21.27389 55.37834 35866 ft 440 kts 287°
2026-04-25 00:31 21.28647 55.31363 35878 ft 442 kts 283°
2026-04-25 00:31 21.29814 55.24902 35879 ft 442 kts 283°
2026-04-25 00:32 21.30954 55.18525 35876 ft 442 kts 283°
2026-04-25 00:32 21.32098 55.12085 35872 ft 441 kts 283°
2026-04-25 00:33 21.33243 55.05615 35869 ft 441 kts 283°
2026-04-25 00:33 21.34378 54.99178 35868 ft 440 kts 283°
2026-04-25 00:34 21.35511 54.92733 35865 ft 438 kts 283°
2026-04-25 00:34 21.36645 54.86273 35867 ft 441 kts 283°
2026-04-25 00:35 21.37766 54.79862 35872 ft 439 kts 283°
2026-04-25 00:35 21.38886 54.73444 35876 ft 439 kts 283°
2026-04-25 00:36 21.40007 54.67007 35878 ft 439 kts 283°
2026-04-25 00:36 21.41133 54.60527 35878 ft 440 kts 282°
2026-04-25 00:37 21.42245 54.54107 35875 ft 438 kts 283°
2026-04-25 00:37 21.43355 54.47688 35875 ft 438 kts 282°
2026-04-25 00:38 21.44455 54.41309 35869 ft 437 kts 283°
2026-04-25 00:38 21.45561 54.34878 35861 ft 437 kts 282°
2026-04-25 00:39 21.46662 54.28467 35873 ft 436 kts 282°
2026-04-25 00:39 21.47751 54.22104 35875 ft 437 kts 282°
2026-04-25 00:40 21.48851 54.15667 35867 ft 435 kts 282°
2026-04-25 00:40 21.49942 54.09266 35869 ft 437 kts 282°
2026-04-25 00:41 21.51029 54.02873 35864 ft 436 kts 282°
2026-04-25 00:41 21.52116 53.96464 35865 ft 437 kts 282°
2026-04-25 00:42 21.53193 53.90098 35862 ft 434 kts 282°
2026-04-25 00:42 21.54272 53.83710 35864 ft 435 kts 282°
2026-04-25 00:43 21.55342 53.77352 35861 ft 434 kts 282°
2026-04-25 00:43 21.56411 53.70990 35864 ft 433 kts 282°
2026-04-25 00:44 21.57483 53.64598 35865 ft 434 kts 282°
2026-04-25 00:44 21.58547 53.58232 35863 ft 434 kts 282°
2026-04-25 00:45 21.59611 53.51852 35859 ft 435 kts 282°
2026-04-25 00:45 21.60670 53.45487 35863 ft 434 kts 282°
2026-04-25 00:46 21.61728 53.39111 35865 ft 434 kts 282°
2026-04-25 00:47 21.63305 53.29584 35877 ft 432 kts 281°
2026-04-25 00:47 21.64352 53.23237 35872 ft 434 kts 281°
2026-04-25 00:48 21.65403 53.16851 35873 ft 434 kts 281°
2026-04-25 00:48 21.66446 53.10495 35870 ft 433 kts 281°
2026-04-25 00:49 21.67491 53.04113 35871 ft 434 kts 281°
2026-04-25 00:49 21.68526 52.97781 35870 ft 431 kts 281°
2026-04-25 00:50 21.69562 52.91418 35879 ft 433 kts 281°
2026-04-25 00:50 21.70593 52.85079 35881 ft 431 kts 281°
2026-04-25 00:51 21.71618 52.78756 35877 ft 432 kts 281°
2026-04-25 00:51 21.72644 52.72411 35880 ft 432 kts 281°
2026-04-25 00:52 21.73666 52.66076 35884 ft 431 kts 281°
2026-04-25 00:52 21.74687 52.59732 35879 ft 430 kts 281°
2026-04-25 00:53 21.75708 52.53371 35879 ft 431 kts 281°
2026-04-25 00:53 21.76720 52.47053 35875 ft 431 kts 281°
2026-04-25 00:54 21.77736 52.40689 35869 ft 432 kts 281°
2026-04-25 00:54 21.78747 52.34346 35867 ft 430 kts 280°
2026-04-25 00:55 21.79756 52.27993 35884 ft 430 kts 280°
2026-04-25 00:55 21.80739 52.21792 35877 ft 429 kts 280°
2026-04-25 00:56 21.81739 52.15467 35869 ft 430 kts 280°
2026-04-25 00:56 21.82739 52.09129 35868 ft 429 kts 280°
2026-04-25 00:57 21.83728 52.02844 35865 ft 428 kts 280°
2026-04-25 00:57 21.84722 51.96505 35866 ft 428 kts 280°
2026-04-25 00:58 21.85706 51.90215 35866 ft 430 kts 280°
2026-04-25 00:58 21.86693 51.83894 35864 ft 428 kts 280°
2026-04-25 00:59 21.87677 51.77576 35864 ft 428 kts 280°
2026-04-25 00:59 21.88656 51.71272 35865 ft 428 kts 280°
2026-04-25 01:00 21.89637 51.64935 35867 ft 429 kts 280°
2026-04-25 01:00 21.90616 51.58596 35868 ft 428 kts 280°
2026-04-25 01:01 21.91587 51.52298 35864 ft 429 kts 280°
2026-04-25 01:01 21.92557 51.45987 35867 ft 428 kts 280°
2026-04-25 01:02 21.93527 51.39659 35869 ft 428 kts 279°
2026-04-25 01:02 21.94494 51.33328 35879 ft 429 kts 279°
2026-04-25 01:03 21.95445 51.27093 35881 ft 427 kts 279°
2026-04-25 01:03 21.96408 51.20764 35882 ft 427 kts 279°
2026-04-25 01:04 21.97362 51.14468 35887 ft 428 kts 279°
2026-04-25 01:04 21.98320 51.08141 35885 ft 428 kts 279°
2026-04-25 01:05 21.99273 51.01824 35883 ft 428 kts 279°
2026-04-25 01:05 22.00220 50.95527 35889 ft 429 kts 279°
2026-04-25 01:06 22.01171 50.89190 35885 ft 427 kts 279°
2026-04-25 01:06 22.02111 50.82905 35886 ft 427 kts 279°
2026-04-25 01:07 22.03056 50.76579 35884 ft 426 kts 279°
2026-04-25 01:07 22.03992 50.70289 35891 ft 426 kts 279°
2026-04-25 01:08 22.04928 50.63981 35887 ft 426 kts 279°
2026-04-25 01:08 22.05862 50.57676 35888 ft 427 kts 279°
2026-04-25 01:09 22.06792 50.51377 35886 ft 426 kts 279°
2026-04-25 01:09 22.07720 50.45075 35888 ft 426 kts 279°
2026-04-25 01:10 22.08639 50.38814 35888 ft 426 kts 279°
2026-04-25 01:10 22.09564 50.32499 35902 ft 426 kts 278°
2026-04-25 01:11 22.10482 50.26210 35904 ft 426 kts 278°
2026-04-25 01:11 22.11395 50.19945 35905 ft 426 kts 278°
2026-04-25 01:12 22.12311 50.13635 35898 ft 425 kts 278°
2026-04-25 01:12 22.13221 50.07350 35905 ft 426 kts 278°
2026-04-25 01:13 22.14134 50.01026 35907 ft 425 kts 278°
2026-04-25 01:13 22.15038 49.94751 35914 ft 423 kts 278°
2026-04-25 01:14 22.15940 49.88470 35924 ft 424 kts 278°
2026-04-25 01:14 22.16835 49.82220 35924 ft 422 kts 278°
2026-04-25 01:15 22.17733 49.75932 35916 ft 423 kts 278°
2026-04-25 01:15 22.18624 49.69681 35916 ft 423 kts 278°
2026-04-25 01:16 22.19510 49.63440 35921 ft 423 kts 278°
2026-04-25 01:16 22.20399 49.57165 35920 ft 423 kts 278°
2026-04-25 01:17 22.21284 49.50897 35914 ft 423 kts 278°
2026-04-25 01:17 22.22168 49.44621 35917 ft 422 kts 278°
2026-04-25 01:18 22.23041 49.38399 35917 ft 422 kts 278°
2026-04-25 01:18 22.23922 49.32108 35932 ft 424 kts 278°
2026-04-25 01:19 22.24796 49.25850 35931 ft 422 kts 278°
2026-04-25 01:19 22.25664 49.19612 35934 ft 421 kts 278°
2026-04-25 01:20 22.26533 49.13354 35933 ft 422 kts 278°
2026-04-25 01:20 22.27396 49.07119 35934 ft 421 kts 278°
2026-04-25 01:21 22.28260 49.00866 35937 ft 420 kts 278°
2026-04-25 01:21 22.29115 48.94653 35930 ft 421 kts 278°
2026-04-25 01:22 22.29974 48.88388 35930 ft 421 kts 278°
2026-04-25 01:22 22.30825 48.82172 35924 ft 420 kts 278°
2026-04-25 01:23 22.31678 48.75915 35914 ft 419 kts 278°
2026-04-25 01:23 22.32520 48.69728 35916 ft 419 kts 278°
2026-04-25 01:24 22.33366 48.63489 35923 ft 419 kts 278°
2026-04-25 01:24 22.34201 48.57319 35922 ft 419 kts 277°
2026-04-25 01:25 22.35039 48.51100 35929 ft 417 kts 278°
2026-04-25 01:25 22.35875 48.44878 35931 ft 419 kts 278°
2026-04-25 01:26 22.36710 48.38656 35937 ft 419 kts 277°
2026-04-25 01:26 22.37540 48.32442 35949 ft 417 kts 277°
2026-04-25 01:27 22.38345 48.26400 35949 ft 417 kts 277°
2026-04-25 01:27 22.39172 48.20174 35948 ft 417 kts 277°
2026-04-25 01:28 22.40400 48.10898 35952 ft 416 kts 277°
2026-04-25 01:28 22.41215 48.04722 35953 ft 418 kts 277°
2026-04-25 01:29 22.42031 47.98510 35949 ft 416 kts 277°
2026-04-25 01:29 22.42844 47.92311 35949 ft 416 kts 277°
2026-04-25 01:30 22.43653 47.86115 35955 ft 418 kts 277°
2026-04-25 01:30 22.44458 47.79939 35960 ft 416 kts 277°
2026-04-25 01:31 22.45261 47.73756 35958 ft 417 kts 277°
2026-04-25 01:31 22.46062 47.67574 35967 ft 418 kts 277°
2026-04-25 01:32 22.46861 47.61379 35967 ft 416 kts 277°
2026-04-25 01:32 22.47659 47.55180 35972 ft 416 kts 277°
2026-04-25 01:33 22.48452 47.49001 35978 ft 417 kts 277°
2026-04-25 01:33 22.49244 47.42810 35974 ft 416 kts 277°
2026-04-25 01:34 22.50034 47.36612 35977 ft 416 kts 277°
2026-04-25 01:34 22.50868 47.30412 35999 ft 417 kts 280°
2026-04-25 01:35 22.52672 47.24473 36008 ft 419 kts 289°
2026-04-25 01:35 22.54791 47.18587 36005 ft 419 kts 288°
2026-04-25 01:36 22.56865 47.12741 36016 ft 418 kts 288°
2026-04-25 01:36 22.58936 47.06853 36015 ft 419 kts 288°
2026-04-25 01:37 22.60994 47.00973 36025 ft 417 kts 288°
2026-04-25 01:37 22.63048 46.95086 36027 ft 419 kts 288°
2026-04-25 01:38 22.65094 46.89210 36027 ft 420 kts 288°
2026-04-25 01:38 22.67148 46.83301 36028 ft 417 kts 288°
2026-04-25 01:39 22.69189 46.77417 36032 ft 418 kts 288°
2026-04-25 01:39 22.71224 46.71544 36036 ft 418 kts 288°
2026-04-25 01:40 22.73268 46.65638 36042 ft 418 kts 288°
2026-04-25 01:40 22.75298 46.59761 36048 ft 418 kts 288°
2026-04-25 01:41 22.77340 46.53845 36054 ft 416 kts 288°
2026-04-25 01:41 22.79358 46.47990 36061 ft 416 kts 287°
2026-04-25 01:42 22.81385 46.42077 36061 ft 417 kts 286°
2026-04-25 01:42 22.82510 46.36008 36071 ft 414 kts 274°
2026-04-25 01:43 22.82989 46.29779 36093 ft 411 kts 274°
2026-04-25 01:43 22.83439 46.23748 36094 ft 413 kts 274°
2026-04-25 01:44 22.83895 46.17571 36082 ft 412 kts 273°
2026-04-25 01:44 22.84350 46.11368 36067 ft 412 kts 274°
2026-04-25 01:45 22.84799 46.05190 36055 ft 414 kts 273°
2026-04-25 01:45 22.85249 45.98967 36040 ft 411 kts 273°
2026-04-25 01:46 22.85693 45.92781 36034 ft 412 kts 273°
2026-04-25 01:46 22.86132 45.86634 36035 ft 412 kts 274°
2026-04-25 01:47 22.86572 45.80446 36034 ft 411 kts 274°
2026-04-25 01:47 22.87009 45.74260 36038 ft 412 kts 273°
2026-04-25 01:48 22.87440 45.68122 36042 ft 410 kts 273°
2026-04-25 01:48 22.87871 45.61950 36052 ft 411 kts 273°
2026-04-25 01:49 22.88299 45.55799 36062 ft 408 kts 274°
2026-04-25 01:49 22.88723 45.49656 36056 ft 409 kts 274°
2026-04-25 01:50 22.89145 45.43518 36059 ft 412 kts 273°
2026-04-25 01:50 22.89567 45.37343 36049 ft 409 kts 273°
2026-04-25 01:51 22.89983 45.31210 36070 ft 410 kts 273°
2026-04-25 01:51 22.90387 45.25232 36066 ft 408 kts 273°
2026-04-25 01:52 22.90799 45.19098 36067 ft 407 kts 273°
2026-04-25 01:52 22.91209 45.12964 36072 ft 410 kts 273°
2026-04-25 01:53 22.91616 45.06830 36067 ft 409 kts 273°
2026-04-25 01:53 22.92020 45.00705 36065 ft 408 kts 273°
2026-04-25 01:54 22.92421 44.94571 36067 ft 407 kts 273°
2026-04-25 01:54 22.92820 44.88446 36066 ft 409 kts 273°
2026-04-25 01:55 22.93217 44.82313 36060 ft 406 kts 273°
2026-04-25 01:55 22.93608 44.76234 36059 ft 406 kts 273°
2026-04-25 01:56 22.94001 44.70096 36068 ft 407 kts 273°
2026-04-25 01:56 22.95108 44.64087 36075 ft 412 kts 285°
2026-04-25 01:57 22.97826 44.55293 36064 ft 409 kts 285°
2026-04-25 01:58 22.99637 44.49431 36058 ft 412 kts 285°
2026-04-25 01:58 23.01437 44.43594 36062 ft 410 kts 285°
2026-04-25 01:59 23.03245 44.37719 36057 ft 410 kts 285°
2026-04-25 01:59 23.05055 44.31826 36078 ft 411 kts 285°
2026-04-25 02:00 23.06797 44.26152 36081 ft 406 kts 285°
2026-04-25 02:00 23.08586 44.20309 36082 ft 408 kts 285°
2026-04-25 02:01 23.10376 44.14456 36083 ft 407 kts 285°
2026-04-25 02:01 23.12155 44.08629 36076 ft 407 kts 285°
2026-04-25 02:02 23.13938 44.02784 36076 ft 408 kts 285°
2026-04-25 02:02 23.15716 43.96945 36073 ft 407 kts 284°
2026-04-25 02:03 23.17489 43.91112 36071 ft 407 kts 285°
2026-04-25 02:03 23.19264 43.85265 36074 ft 406 kts 285°
2026-04-25 02:04 23.21035 43.79425 36070 ft 406 kts 284°
2026-04-25 02:04 23.22805 43.73578 36073 ft 406 kts 285°
2026-04-25 02:05 23.24558 43.67776 36066 ft 407 kts 285°
2026-04-25 02:05 23.26316 43.61954 36066 ft 403 kts 285°
2026-04-25 02:06 23.28077 43.56106 36064 ft 407 kts 284°
2026-04-25 02:06 23.29821 43.50315 36064 ft 406 kts 284°
2026-04-25 02:07 23.31566 43.44507 36066 ft 406 kts 284°
2026-04-25 02:07 23.33319 43.38666 36061 ft 403 kts 284°
2026-04-25 02:08 23.35065 43.32838 36079 ft 403 kts 284°
2026-04-25 02:08 23.36802 43.27033 36085 ft 406 kts 284°
2026-04-25 02:09 23.38534 43.21234 36087 ft 403 kts 284°
2026-04-25 02:09 23.40272 43.15407 36082 ft 402 kts 284°
2026-04-25 02:10 23.41991 43.09627 36081 ft 405 kts 284°
2026-04-25 02:10 23.43723 43.03790 36077 ft 402 kts 283°
2026-04-25 02:11 23.45445 42.97972 36074 ft 404 kts 284°
2026-04-25 02:11 23.47159 42.92179 36075 ft 405 kts 283°
2026-04-25 02:12 23.48875 42.86371 36064 ft 402 kts 284°
2026-04-25 02:12 23.50582 42.80581 36065 ft 404 kts 284°
2026-04-25 02:13 23.52291 42.74778 36056 ft 401 kts 284°
2026-04-25 02:13 23.53996 42.68992 36047 ft 402 kts 284°
2026-04-25 02:14 23.55705 42.63187 36050 ft 402 kts 284°
2026-04-25 02:14 23.57416 42.57362 36044 ft 403 kts 283°
2026-04-25 02:15 23.59109 42.51592 36043 ft 402 kts 283°
2026-04-25 02:15 23.60819 42.45755 36034 ft 404 kts 283°
2026-04-25 02:16 23.62470 42.40114 36029 ft 402 kts 283°
2026-04-25 02:16 23.64181 42.34251 36026 ft 402 kts 283°
2026-04-25 02:17 23.65872 42.28453 36047 ft 401 kts 284°
2026-04-25 02:17 23.67561 42.22635 36045 ft 404 kts 283°
2026-04-25 02:18 23.69239 42.16843 36045 ft 401 kts 283°
2026-04-25 02:18 23.70927 42.11009 36040 ft 401 kts 283°
2026-04-25 02:19 23.72610 42.05178 36036 ft 405 kts 284°
2026-04-25 02:19 23.74282 41.99382 36033 ft 401 kts 283°
2026-04-25 02:20 23.75966 41.93557 36034 ft 404 kts 284°
2026-04-25 02:20 23.77664 41.87682 36031 ft 400 kts 283°
2026-04-25 02:21 23.79337 41.81879 36031 ft 401 kts 283°
2026-04-25 02:21 23.81003 41.76094 36027 ft 399 kts 283°
2026-04-25 02:22 23.82663 41.70313 36027 ft 401 kts 283°
2026-04-25 02:22 23.84325 41.64516 36028 ft 399 kts 283°
2026-04-25 02:23 23.85984 41.58718 35779 ft 405 kts 283°
2026-04-25 02:23 23.86825 41.55777 35398 ft 406 kts 283°
2026-04-25 02:23 23.87660 41.52841 34926 ft 411 kts 283°
2026-04-25 02:23 23.88513 41.49831 34189 ft 421 kts 283°
2026-04-25 02:24 23.89386 41.46760 33382 ft 424 kts 282°
2026-04-25 02:24 23.90255 41.43693 32234 ft 434 kts 282°
2026-04-25 02:24 23.91155 41.40515 31224 ft 437 kts 282°
2026-04-25 02:24 23.92047 41.37376 30806 ft 429 kts 282°
2026-04-25 02:25 23.92926 41.34280 30419 ft 424 kts 281°
2026-04-25 02:25 23.93818 41.31119 29970 ft 443 kts 281°
2026-04-25 02:25 23.94733 41.27888 29453 ft 447 kts 281°
2026-04-25 02:25 23.95645 41.24675 28932 ft 444 kts 281°
2026-04-25 02:26 23.96550 41.21487 28411 ft 438 kts 281°
2026-04-25 02:26 23.97449 41.18315 27895 ft 432 kts 281°
2026-04-25 02:26 23.98326 41.15217 27388 ft 426 kts 281°
2026-04-25 02:26 23.99194 41.12147 26881 ft 420 kts 281°
2026-04-25 02:27 24.00043 41.09137 26375 ft 414 kts 281°
2026-04-25 02:27 24.00842 41.06305 25897 ft 409 kts 281°
2026-04-25 02:27 24.01683 41.03317 25397 ft 404 kts 281°
2026-04-25 02:27 24.02498 41.00423 24900 ft 399 kts 281°
2026-04-25 02:28 24.03306 40.97547 24413 ft 394 kts 281°
2026-04-25 02:28 24.04102 40.94714 23925 ft 393 kts 281°
2026-04-25 02:28 24.04925 40.91762 23410 ft 406 kts 281°
2026-04-25 02:28 24.05744 40.88844 22883 ft 403 kts 281°
2026-04-25 02:29 24.06562 40.85930 22387 ft 398 kts 282°
2026-04-25 02:29 24.07363 40.83075 21890 ft 395 kts 281°
2026-04-25 02:29 24.08167 40.80202 21377 ft 392 kts 282°
2026-04-25 02:29 24.08958 40.77376 20868 ft 390 kts 282°
2026-04-25 02:30 24.09749 40.74543 20353 ft 390 kts 282°
2026-04-25 02:30 24.10555 40.71656 19811 ft 387 kts 282°
2026-04-25 02:30 24.11331 40.68875 19293 ft 383 kts 282°
2026-04-25 02:30 24.12103 40.66105 18773 ft 381 kts 282°
2026-04-25 02:31 24.12881 40.63312 18244 ft 379 kts 283°
2026-04-25 02:31 24.13642 40.60576 17735 ft 378 kts 283°
2026-04-25 02:31 24.14409 40.57821 17218 ft 378 kts 283°
2026-04-25 02:31 24.15163 40.55106 16697 ft 375 kts 283°
2026-04-25 02:32 24.15898 40.52380 16166 ft 370 kts 279°
2026-04-25 02:32 24.16287 40.49649 15706 ft 361 kts 272°
2026-04-25 02:32 24.16500 40.46891 15421 ft 364 kts 271°
2026-04-25 02:32 24.16705 40.44141 15121 ft 365 kts 271°
2026-04-25 02:33 24.16908 40.41375 14793 ft 363 kts 272°
2026-04-25 02:33 24.17111 40.38615 14463 ft 361 kts 272°
2026-04-25 02:33 24.17309 40.35903 14147 ft 359 kts 272°
2026-04-25 02:33 24.17511 40.33136 13841 ft 355 kts 271°
2026-04-25 02:34 24.17705 40.30466 13547 ft 346 kts 271°
2026-04-25 02:34 24.17895 40.27854 13243 ft 337 kts 271°
2026-04-25 02:34 24.18077 40.25333 12945 ft 329 kts 271°
2026-04-25 02:34 24.18257 40.22819 12646 ft 322 kts 271°
2026-04-25 02:35 24.18415 40.20632 12385 ft 315 kts 271°
2026-04-25 02:35 24.18550 40.18732 12159 ft 310 kts 271°
2026-04-25 02:35 24.18717 40.16396 11885 ft 303 kts 271°
2026-04-25 02:35 24.18880 40.14111 11612 ft 297 kts 271°
2026-04-25 02:36 24.19039 40.11871 11349 ft 291 kts 271°
2026-04-25 02:36 24.19196 40.09662 11088 ft 285 kts 271°
2026-04-25 02:36 24.19348 40.07512 10831 ft 280 kts 271°
2026-04-25 02:36 24.19499 40.05388 10579 ft 274 kts 271°
2026-04-25 02:37 24.19644 40.03330 10333 ft 269 kts 271°
2026-04-25 02:37 24.19787 40.01303 10096 ft 265 kts 271°
2026-04-25 02:37 24.19929 39.99276 9842 ft 264 kts 271°
2026-04-25 02:37 24.20071 39.97242 9574 ft 265 kts 271°
2026-04-25 02:38 24.20212 39.95229 9309 ft 264 kts 271°
2026-04-25 02:38 24.20355 39.93190 9047 ft 265 kts 271°
2026-04-25 02:38 24.20497 39.91155 8779 ft 264 kts 271°
2026-04-25 02:38 24.20542 39.89141 8503 ft 260 kts 260°
2026-04-25 02:39 24.20257 39.87198 8269 ft 255 kts 256°
2026-04-25 02:39 24.19915 39.85275 8075 ft 248 kts 256°
2026-04-25 02:39 24.19588 39.83442 8047 ft 234 kts 256°
2026-04-25 02:39 24.19291 39.81682 8043 ft 231 kts 262°
2026-04-25 02:40 24.19566 39.79916 8042 ft 237 kts 292°
2026-04-25 02:40 24.20679 39.78528 8005 ft 248 kts 324°
2026-04-25 02:40 24.22315 39.77821 7886 ft 255 kts 343°
2026-04-25 02:40 24.24071 39.77423 7702 ft 253 kts 346°
2026-04-25 02:41 24.25800 39.77111 7429 ft 253 kts 356°
2026-04-25 02:41 24.27542 39.77506 7081 ft 254 kts 26°
2026-04-25 02:41 24.29178 39.78226 6801 ft 250 kts
2026-04-25 02:41 24.30871 39.78102 6573 ft 243 kts 338°
2026-04-25 02:42 24.32408 39.77394 6347 ft 242 kts 332°
2026-04-25 02:42 24.33956 39.76612 6100 ft 238 kts 333°
2026-04-25 02:42 24.35537 39.76109 6040 ft 227 kts 342°
2026-04-25 02:42 24.37020 39.75511 5889 ft 227 kts 334°
2026-04-25 02:43 24.38437 39.74838 5534 ft 218 kts 334°
2026-04-25 02:43 24.39818 39.74205 5129 ft 213 kts 339°
2026-04-25 02:43 24.41243 39.73771 4648 ft 212 kts 347°
2026-04-25 02:43 24.42654 39.73472 4345 ft 194 kts 349°
2026-04-25 02:44 24.43896 39.73226 4105 ft 174 kts 349°
2026-04-25 02:44 24.45073 39.72983 3880 ft 168 kts 349°
2026-04-25 02:44 24.46232 39.72739 3658 ft 167 kts 350°
2026-04-25 02:44 24.47359 39.72501 3437 ft 165 kts 350°
2026-04-25 02:45 24.48505 39.72261 3209 ft 163 kts 351°
2026-04-25 02:45 24.49632 39.72023 2985 ft 162 kts 351°
2026-04-25 02:45 24.50733 39.71790 2774 ft 162 kts 351°
2026-04-25 02:45 24.51861 39.71539 2510 ft 162 kts 350°
2026-04-25 02:46 24.52970 39.71307 2338 ft 161 kts 352°
2026-04-25 02:46 24.54084 39.71079 2178 ft 159 kts 351°
2026-04-25 02:46 24.55071 39.70871 2173 ft 124 kts 349°
2026-04-25 02:46 24.55742 39.70730 2175 ft 71 kts 349°
2026-04-25 02:47 24.56048 39.70678 2175 ft 18 kts
2026-04-25 02:47 24.56173 39.70701 2176 ft 17 kts 14°
2026-04-25 02:47 24.56253 39.70728 2176 ft 8 kts 32°
2026-04-25 02:47 24.56282 39.70780 2176 ft 7 kts 96°
2026-04-25 02:48 24.56247 39.70814 2176 ft 6 kts 162°
2026-04-25 02:48 24.56199 39.70825 2176 ft 8 kts 169°
2026-04-25 02:48 24.56120 39.70842 2175 ft 13 kts 169°
2026-04-25 02:48 24.56031 39.70861 2175 ft 11 kts 167°
2026-04-25 02:49 24.56002 39.70917 2175 ft 8 kts 89°
2026-04-25 02:49 24.56012 39.70981 2175 ft 8 kts 78°
2026-04-25 02:49 24.56020 39.71035 2175 ft 4 kts 103°
2026-04-25 02:49 24.55992 39.71060 2175 ft 5 kts 157°
2026-04-25 02:50 24.55956 39.71070 2175 ft 5 kts 168°
2026-04-25 02:50 24.55903 39.71083 2175 ft 9 kts 168°
2026-04-25 02:50 24.55840 39.71096 2175 ft 8 kts 169°
2026-04-25 02:50 24.55803 39.71125 2175 ft 6 kts 96°
2026-04-25 02:51 24.55809 39.71171 2175 ft 5 kts 79°
2026-04-25 02:51 24.55814 39.71193 2175 ft 1 kts 79°
2026-04-25 02:51 24.55814 39.71196 2175 ft 0 kts 79°